Weather History for KO69 - June, 2014

Change the Weather History Date:

Monday, June 30, 2014

  Actual Average (KAPC) Record (KAPC)
Temperature  
Mean Temperature 72 °F 66 °F  
Max Temperature 93 °F 79 °F 94 °F (2002)
Min Temperature 50 °F 52 °F 47 °F (2007)
Degree Days  
Heating Degree Days 0    
Month to date heating degree days  
Since 1 June heating degree days  
Since 1 July heating degree days  
Cooling Degree Days 6    
Month to date cooling degree days  
Year to date cooling degree days  
Since 1 June cooling degree days  
Growing Degree Days 22 (Base 50)    
Moisture  
Dew Point 54 °F    
Average Humidity 65    
Maximum Humidity 100    
Minimum Humidity 31    
Precipitation  
Precipitation 0.00 in - 0.29 in (1992)
Month to date precipitation  
Year to date precipitation  
Sea Level Pressure  
Sea Level Pressure 29.83 in    
Wind  
Wind Speed 3 mph (WNW)    
Max Wind Speed 14 mph    
Max Gust Speed 21 mph    
Visibility 8 miles    
Events      
T = Trace of Precipitation, MM = Missing Value Source: NWS Daily Summary

Daily Weather History Graph

Daily Weather History Graph

Search for Another Location

Airport or City:

Trip Planner

Search our weather history database for the weather conditions in past years. The results will help you decide how hot, cold, wet, or windy it might be!

Date:

Astronomy

Jun. 30, 2014 Rise Set
Actual Time 5:50 AM PDT 8:37 PM PDT
Civil Twilight 5:18 AM PDT 9:09 PM PDT
Nautical Twilight 4:39 AM PDT 9:48 PM PDT
Astronomical Twilight 3:54 AM PDT 10:33 PM PDT
Moon 9:05 AM PDT 10:37 PM PDT
Length of Visible Light 15h 50m
Length of Day
14h 47m
Waxing Crescent, 11% of the Moon is Illuminated
Jun 30
Waxing Crescent
Jul 5
First Quarter
Jul 12
Full
Jul 18
Last Quarter
Jul 26
New

Hourly Weather History & Observations

Time (PDT) Temp. Heat Index Dew Point Humidity Pressure Visibility Wind Dir Wind Speed Gust Speed Precip Events Conditions
12:15 AM 57.2 °F - 53.6 °F 88% 29.86 in 7.0 mi Calm Calm - N/A   Partly Cloudy
12:35 AM 55.4 °F - 53.6 °F 94% 29.85 in 7.0 mi Calm Calm - N/A   Partly Cloudy
12:55 AM 55.4 °F - 53.6 °F 94% 29.86 in 7.0 mi Calm Calm - N/A   Clear
1:15 AM 55.4 °F - 51.8 °F 88% 29.85 in 7.0 mi NW 3.5 mph - N/A   Clear
1:35 AM 55.4 °F - 51.8 °F 88% 29.85 in 7.0 mi NW 3.5 mph - N/A   Clear
1:55 AM 55.4 °F - 51.8 °F 88% 29.84 in 7.0 mi WNW 3.5 mph - N/A   Clear
2:15 AM 55.4 °F - 51.8 °F 88% 29.84 in 7.0 mi NW 3.5 mph - N/A   Clear
2:35 AM 55.4 °F - 51.8 °F 88% 29.84 in 7.0 mi Calm Calm - N/A   Clear
2:55 AM 55.4 °F - 51.8 °F 88% 29.84 in 7.0 mi Calm Calm - N/A   Clear
3:15 AM 55.4 °F - 51.8 °F 88% 29.84 in 7.0 mi NW 3.5 mph - N/A   Clear
3:35 AM 55.4 °F - 51.8 °F 88% 29.84 in 7.0 mi WNW 3.5 mph - N/A   Clear
3:55 AM 55.4 °F - 51.8 °F 88% 29.84 in 7.0 mi Calm Calm - N/A   Clear
4:15 AM 53.6 °F - 51.8 °F 94% 29.84 in 7.0 mi Calm Calm - N/A   Clear
4:35 AM 53.6 °F - 51.8 °F 94% 29.84 in 7.0 mi Calm Calm - N/A   Clear
4:55 AM 51.8 °F - 50.0 °F 94% 29.84 in 7.0 mi Calm Calm - N/A   Clear
5:15 AM 51.8 °F - 50.0 °F 94% 29.85 in 7.0 mi Calm Calm - N/A   Clear
5:35 AM 50.0 °F - 50.0 °F 100% 29.85 in 7.0 mi Calm Calm - N/A   Clear
5:55 AM 51.8 °F - 51.8 °F 100% 29.84 in 7.0 mi Calm Calm - N/A   Clear
6:15 AM 51.8 °F - 51.8 °F 100% 29.85 in 6.0 mi Calm Calm - N/A   Clear
6:35 AM 53.6 °F - 53.6 °F 100% 29.85 in 5.0 mi Calm Calm - N/A   Clear
6:55 AM 55.4 °F - 53.6 °F 94% 29.85 in 5.0 mi Calm Calm - N/A   Clear
7:15 AM 59.0 °F - 53.6 °F 82% 29.85 in 5.0 mi Calm Calm - N/A   Clear
7:35 AM 60.8 °F - 53.6 °F 77% 29.85 in 7.0 mi Calm Calm - N/A   Clear
7:55 AM 62.6 °F - 53.6 °F 72% 29.85 in 7.0 mi Calm Calm - N/A   Clear
8:15 AM 64.4 °F - 53.6 °F 68% 29.85 in 7.0 mi Calm Calm - N/A   Clear
8:35 AM 66.2 °F - 53.6 °F 64% 29.85 in 7.0 mi Calm Calm - N/A   Clear
8:55 AM 69.8 °F - 55.4 °F 60% 29.84 in 8.0 mi Calm Calm - N/A   Clear
9:15 AM 71.6 °F - 55.4 °F 57% 29.85 in 9.0 mi Calm Calm - N/A   Clear
9:35 AM 75.2 °F - 55.4 °F 50% 29.84 in 10.0 mi Calm Calm - N/A   Clear
9:55 AM 77.0 °F - 55.4 °F 47% 29.84 in 10.0 mi South 3.5 mph - N/A   Clear
10:15 AM 78.8 °F - 55.4 °F 44% 29.84 in 10.0 mi SSW 3.5 mph - N/A   Clear
10:35 AM 80.6 °F 80.8 °F 57.2 °F 45% 29.84 in 10.0 mi Calm Calm - N/A   Clear
10:55 AM 82.4 °F 81.7 °F 55.4 °F 39% 29.84 in 10.0 mi Calm Calm - N/A   Clear
11:15 AM 84.2 °F 82.8 °F 53.6 °F 35% 29.83 in 10.0 mi Calm Calm - N/A   Clear
11:35 AM 86.0 °F 84.2 °F 53.6 °F 33% 29.83 in 10.0 mi Calm Calm - N/A   Clear
11:55 AM 89.6 °F 87.7 °F 55.4 °F 31% 29.83 in 10.0 mi Calm Calm - N/A   Clear
12:15 PM 89.6 °F 87.7 °F 55.4 °F 31% 29.82 in 10.0 mi Calm Calm - N/A   Clear
12:35 PM 91.4 °F 89.9 °F 57.2 °F 31% 29.82 in 10.0 mi Calm Calm - N/A   Clear
12:55 PM 93.2 °F 92.6 °F 59.0 °F 32% 29.81 in 9.0 mi WNW 11.5 mph - N/A   Clear
1:15 PM 91.4 °F 89.9 °F 57.2 °F 31% 29.81 in 10.0 mi WNW 13.8 mph 18.4 mph N/A   Clear
1:35 PM 91.4 °F 89.9 °F 57.2 °F 31% 29.81 in 10.0 mi WNW 9.2 mph 19.6 mph N/A   Clear
1:55 PM 89.6 °F 88.1 °F 57.2 °F 33% 29.81 in 10.0 mi WNW 11.5 mph - N/A   Clear
2:15 PM 89.6 °F 88.1 °F 57.2 °F 33% 29.81 in 10.0 mi WNW 9.2 mph 16.1 mph N/A   Clear
2:35 PM 89.6 °F 88.1 °F 57.2 °F 33% 29.81 in 10.0 mi WNW 11.5 mph 20.7 mph N/A   Clear
2:55 PM 89.6 °F 88.1 °F 57.2 °F 33% 29.81 in 10.0 mi WNW 11.5 mph 17.3 mph N/A   Clear
3:15 PM 87.8 °F 86.5 °F 57.2 °F 35% 29.81 in 10.0 mi NW 10.4 mph 16.1 mph N/A   Clear
3:35 PM 87.8 °F 86.1 °F 55.4 °F 33% 29.81 in 10.0 mi NW 10.4 mph 17.3 mph N/A   Clear
3:55 PM 87.8 °F 85.7 °F 53.6 °F 31% 29.80 in 10.0 mi NW 9.2 mph 16.1 mph N/A   Clear
4:15 PM 87.8 °F 85.7 °F 53.6 °F 31% 29.80 in 10.0 mi NNW 10.4 mph - N/A   Clear
4:35 PM 86.0 °F 84.2 °F 53.6 °F 33% 29.80 in 10.0 mi NW 6.9 mph 17.3 mph N/A   Clear
4:55 PM 84.2 °F 82.8 °F 53.6 °F 35% 29.80 in 10.0 mi NW 8.1 mph 17.3 mph N/A   Clear
5:15 PM 84.2 °F 83.0 °F 55.4 °F 37% 29.80 in 10.0 mi NW 9.2 mph - N/A   Clear
5:35 PM 82.4 °F 81.4 °F 53.6 °F 37% 29.79 in 9.0 mi NW 9.2 mph - N/A   Clear
6:15 PM 75.2 °F - 55.4 °F 50% 29.80 in 9.0 mi WNW 12.7 mph 18.4 mph N/A   Clear
6:35 PM 73.4 °F - 55.4 °F 53% 29.80 in 8.0 mi NW 4.6 mph - N/A   Clear
7:15 PM 66.2 °F - 53.6 °F 64% 29.80 in 7.0 mi WNW 13.8 mph 19.6 mph N/A   Clear
7:35 PM 64.4 °F - 53.6 °F 68% 29.81 in 6.0 mi WNW 13.8 mph - N/A   Clear
7:55 PM 64.4 °F - 53.6 °F 68% 29.81 in 6.0 mi WNW 11.5 mph - N/A   Clear
8:15 PM 62.6 °F - 53.6 °F 72% 29.81 in 6.0 mi WNW 11.5 mph - N/A   Clear
8:35 PM 62.6 °F - 53.6 °F 72% 29.82 in 5.0 mi WNW 10.4 mph - N/A   Clear
8:55 PM 60.8 °F - 53.6 °F 77% 29.81 in 5.0 mi WNW 11.5 mph - N/A   Clear
9:15 PM 60.8 °F - 53.6 °F 77% 29.82 in 6.0 mi WNW 10.4 mph - N/A   Scattered Clouds
9:35 PM 59.0 °F - 53.6 °F 82% 29.82 in 6.0 mi WNW 8.1 mph - N/A   Mostly Cloudy
9:55 PM 57.2 °F - 53.6 °F 88% 29.83 in 5.0 mi WNW 6.9 mph - N/A   Mostly Cloudy
10:15 PM 57.2 °F - 53.6 °F 88% 29.83 in 6.0 mi NW 5.8 mph - N/A   Scattered Clouds
10:35 PM 57.2 °F - 53.6 °F 88% 29.83 in 6.0 mi NW 5.8 mph - N/A   Partly Cloudy
10:55 PM 57.2 °F - 53.6 °F 88% 29.83 in 5.0 mi WNW 5.8 mph - N/A   Partly Cloudy
11:15 PM 57.2 °F - 53.6 °F 88% 29.83 in 5.0 mi NW 5.8 mph - N/A   Partly Cloudy
11:35 PM 55.4 °F - 53.6 °F 94% 29.83 in 5.0 mi NW 4.6 mph - N/A   Mostly Cloudy